Regional Weather Roundup
Issued by NWS Sioux Falls, SD

Home | Current Version | Previous Version | Text Only | Print | Product List | Glossary Off
Versions: 1 2 3 4 5 6 7 8 9 10 11 12 13 14 15 16 17 18 19 20 21 22 23 24 25 26 27 28 29 30 31 32 33 34 35 36 37 38 39 40 41 42 43 44 45 46 47 48 49 50

000
ASUS43 KFSD 251510
RWRFSD

WEATHER ROUNDUP FOR SE SOUTH DAKOTA/SW MINNESOTA/NW IOWA
NATIONAL WEATHER SERVICE SIOUX FALLS SD
1000 AM CDT SAT OCT 25 2014

NOTE: "FAIR" INDICATES FEW OR NO CLOUDS BELOW 12,000 FEET WITH NO
SIGNIFICANT WEATHER AND OR OBSTRUCTIONS TO VISIBILITY.


SDZ038>040-050-052>070-251600-
SOUTHEAST SOUTH DAKOTA

CITY           SKY/WX    TMP DP  RH WIND       PRES   REMARKS
CHAMBERLAIN    SUNNY     52  38  58 CALM      30.17R
HURON          SUNNY     53  37  54 N7        30.16R
MADISON        FAIR      54  36  50 N7        30.15R
MITCHELL       SUNNY     51  40  65 NW3       30.17R
SIOUX FALLS    MOSUNNY   56  44  64 CALM      30.14R
WINNER         FAIR      49  36  61 W5        30.18R
YANKTON        SUNNY     52  43  71 NW7       30.15R
$$

MNZ071-072-080-081-089-090-097-098-251600-
SOUTHWEST MINNESOTA

CITY           SKY/WX    TMP DP  RH WIND       PRES   REMARKS
FAIRMONT       SUNNY     57   7  13 NW10      30.11R
JACKSON        SUNNY     55  34  44 NW8       30.12R
LUVERNE        SUNNY     54  41  62 NW3       30.14S
MARSHALL       SUNNY     55  34  44 NW13      30.12R
MONTEVIDEO     MOSUNNY   55  37  50 N7        30.12R
PIPESTONE      SUNNY     54  36  50 CALM      30.13R
REDWOOD FALLS  SUNNY     55  35  47 NW9       30.11R
TRACY          SUNNY     57  35  44 N12       30.13R
WINDOM         SUNNY     57  34  41 N12G18    30.12R
WORTHINGTON    SUNNY     55  36  47 N10       30.14R
$$

IAZ001>003-012>014-020>022-031-032-NEZ013-014-SDZ071-251600-
NORTHWEST IOWA

CITY           SKY/WX    TMP DP  RH WIND       PRES   REMARKS
CHEROKEE       SUNNY     50  47  89 CALM      30.13S
DENISON        SUNNY     54  46  76 NE5       30.11S
ESTHERVILLE    SUNNY     57  36  45 NW8       30.11R
LE MARS        SUNNY     52  45  76 CALM      30.14S
ORANGE CITY    SUNNY     57  39  51 CALM      30.13S
SHELDON        SUNNY     54  45  71 N6        30.13R
SIOUX CITY     SUNNY     53  45  74 NW3       30.14R
SPENCER        SUNNY     56  41  57 N3        30.13R
STORM LAKE     SUNNY     57  37  47 N9        30.13S
$$

ABBREVIATIONS USED IN REMARKS
   TC - TEMPERATURE IN CELSIUS
  WCI - WIND CHILL INDEX
   HX - HEAT INDEX
  VSB - VISIBILITY




USA.gov is the U.S. government's official web portal to all federal, state and local government web resources and services.